Terminal Aerodrome Forecast
Issued by NWS

Home | Current Version | Previous Version | Text Only | Print | Product List | Glossary On
Versions: 1 2 3 4 5 6 7 8 9 10 11 12 13 14 15 16 17 18 19 20
000
FTAK31 PAFA 250059 AAA
TAFAOM
TAF AMD
PAOM 250059Z 2501/2524 18008KT 6SM -SHSN BR BKN015 OVC050
     FM250600 15015KT 4SM -SN BR BKN007 OVC015
     FM250900 15020KT 1 1/2SM -SN BR BKN007 OVC015
     FM252100 21010KT 6SM BR VCSH OVC015=

USA.gov is the U.S. government's official web portal to all federal, state and local government web resources and services.